Starlink 32437

operational
NORAD ID: 63001 Int'l Des: 2025-031 Owner: SPXS Country: US Constellation: starlink
LEOCIRCULAR

关于 Starlink 32437

正在加载描述...

实时位置

正在加载3D地球...

即将过境

高度历史

Altitude vs Time

uPlot chart will show altitude changes over time

两行轨道根数

1 63001U 25031W 25351.12920500 .00023826 00000-0 87182-3 0 9996
2 63001 42.9979 250.0373 0001416 266.7644 93.3046 15.27607222 48460
Epoch: Dec 17, 2025 • Age: 14 hours

当前状态

高度 492.2 km
速度 7.62 km/s
星下点 -35.26°S, 138.88°E
发射日期 Feb 11, 2025
运行时间 0.8 years
类型 internet

技术详情

分类 Payload
质量 730.00 kg
干质量 700.00 kg
总质量 730.00 kg
长度 0.30 m
直径 4.10 m
跨度 29.00 m
形状 Box + pan
制造商 SPXS
平台类型 Starlink V2M
阶段状态 In Orbit
所有者/国家 SPXS/US

大型星座

Loading constellations...